Location: Cantaing
(50.1487°N, 3.1675°E)
Time: 15:38:43
(UTC+00:00)

Gblst 52 Del rocket - Pass Details

Date: 14 January 2026
Orbit: 805 x 1364 km, 51.5° (Epoch: 18 February)

Event Time Altitude Azimuth Distance (km) Brightness Sun altitude
Exits shadow 04:50:14 77° 335° (NNW) 830 4.0 -26.7°
Maximum altitude 04:50:27 79° 7° (N) 825 4.0 -26.6°
Drops below altitude 10° 04:55:59 10° 94° (E) 2,404 7.6 -25.7°
Sets 04:58:29 0° 96° (E) 3,367 8.7 -25.3°
